Regional Weather Roundup
Issued by NWS

Home | Current Version | Previous Version | Text Only | Print | Product List | Glossary Off
Versions: 1 2 3 4 5 6 7 8 9 10 11 12 13 14 15 16 17 18 19 20 21 22 23 24 25 26 27 28 29 30 31 32 33 34 35 36 37 38 39 40 41 42 43 44 45 46 47 48 49 50

000
ASUS43 KLSX 222007
RWRMO

WEATHER SUMMARY FOR MISSOURI
NATIONAL WEATHER SERVICE SPRINGFIELD MO
300 PM CDT FRI JUL 22 2016

NOTE: "FAIR" INDICATES FEW OR NO CLOUDS BELOW 12,000 FEET WITH NO
       SIGNIFICANT WEATHER AND/OR OBSTRUCTIONS TO VISIBILITY.
       CURRENT SKY AND/OR WEATHER CONDITIONS ARE NOT AVAILABLE FOR
       CHILLICOTHE AND FARMINGTON.

MOZ001>031-035>038-043-044-053-054-222100-
...NORTHERN AND WESTERN MISSOURI...

CITY           SKY/WX    TMP DP  RH WIND       PRES   REMARKS
KANSAS CTY INT PTSUNNY   90  76  63 S17       30.00F HX 101
KANSAS C DTWN  MOSUNNY   93  75  55 S9        29.99F HX 104
LEE`S SUMMIT   SUNNY     90  73  57 S18       30.02F HX  98
ST JOSEPH      CLOUDY    91  76  61 S15       29.97F HX 103
CHILLICOTHE      N/A     89  75  63 S10       30.00F HX  99
KIRKSVILLE     MOSUNNY   88  73  61 S9        30.02F HX  95

$$
MOZ066>068-077>081-088>096-101>105-222100-
...SOUTHWEST MISSOURI...

CITY           SKY/WX    TMP DP  RH WIND       PRES   REMARKS
SPRINGFIELD    MOSUNNY   94  75  54 VRB7      30.05F HX 105
JOPLIN         SUNNY     94  72  48 SW9       30.04F HX 102
BRANSON        MOSUNNY   93  72  49 SW7       30.08F HX 100

$$
MOZ032>034-039>042-045>050-055>058-069>072-222100-
...CENTRAL MISSOURI...

CITY           SKY/WX    TMP DP  RH WIND       PRES   REMARKS
COLUMBIA       CLOUDY    89  72  56 SW7       30.03S HX  96
JEFFERSON CITY CLOUDY    88  71  57 SW5       30.01S HX  94
ROLLA          PTSUNNY   88  73  61 VRB3      30.04R HX  95
SEDALIA        CLOUDY    91  74  57 S14       30.03F HX 100
WHITEMAN AFB   PTSUNNY   92  75  57 SW16      30.00F HX 102
OSAGE BEACH    MOSUNNY   88  74  63 W5        30.04F HX  96

$$
MOZ051-052-059>065-222100-
...EAST CENTRAL MISSOURI...

CITY           SKY/WX    TMP DP  RH WIND       PRES   REMARKS
ST LOUIS INTL  CLOUDY    83  72  69 E8        30.04S
SPIRIT OF STL  CLOUDY    84  74  71 E7        30.01F HX  91
ST CHARLES     CLOUDY    84  76  76 SE6       30.02S HX  93

$$
MOZ072>076-082>087-097>100-106>115-222100-
...SOUTH CENTRAL AND SOUTHEAST MISSOURI...

CITY           SKY/WX    TMP DP  RH WIND       PRES   REMARKS
CAPE GIRARDEAU CLOUDY    88  77  69 S3        30.00F HX 100
FARMINGTON     CLOUDY    87  71  58 VRB3      30.06S HX  93
POPLAR BLUFF   MOSUNNY   96  76  52 VRB6      29.99F HX 109
WEST PLAINS    SUNNY     93  72  50 W8        30.07F HX 101

$$



USA.gov is the U.S. government's official web portal to all federal, state and local government web resources and services.